Flag for Tuvalu Weather past 2 weeks in Funafuti, Tuvalu

Now
81 °F

Partly cloudy.


Feels Like: 87 °F
Forecast: 79 / 89 °F
Wind: 1 mph from North

Location: Funafuti

Current Time: Apr 25, 2015 at 7:43:27 PM

Latest Report: Apr 25, 2015 at 7:00 PM


Visibility: N/A

Pressure: 29.80 "Hg

Humidity: 89%

Dew point: 77 °F

Location of FunafutiLocation

Historic Weather in Funafuti — Graph

°F

Funafuti temperature yesterday

Maximum temperature yesterday: 90 °F (at 11:00 AM)
Minimum temperature yesterday: 81 °F (at 2:00 PM)
Average temperature yesterday: 85 °F

Past Weeks' High & Low Weather Summary

 TemperatureHumidityPressure
High91 °F (Apr 12, 12:00 PM)100% (Apr 13, 12:00 AM)29.95 "Hg (Apr 13, 12:00 AM)
Low77 °F (Apr 13, 7:00 PM)66% (Apr 17, 9:00 AM)29.71 "Hg (Apr 20, 4:00 PM)
Average84 °F80%29.81 "Hg
* Reported Apr 10 5:00 PM — Apr 25 5:00 PM, Funafuti, Weather by CustomWeather, © 2015

Note: Actual official high and low records may vary slightly from our data, if they occured in-between our weather recording intervals... More about our weather records

Advertising

Funafuti weather history for previous 24 hours

 ConditionsComfort  
Time TempWeatherWind HumidityBarometerVisibility
5:00 PM
Sat, Apr 25
82 °FScattered showers. Broken clouds.3 mph79%29.77 "HgN/A
4:00 PM81 °FScattered showers. Broken clouds.5 mph84%29.74 "HgN/A
3:00 PM81 °FSprinkles. Broken clouds.5 mph84%29.77 "HgN/A
2:00 PM81 °FSprinkles. More clouds than sun.10 mph89%29.77 "HgN/A
1:00 PM82 °FSprinkles. Broken clouds.10 mph84%29.77 "HgN/A
12:00 PM90 °FScattered showers. Partly sunny.5 mph71%29.80 "HgN/A
11:00 AM90 °FScattered clouds.2 mph71%29.83 "HgN/A
10:00 AM90 °FPassing clouds.2 mph75%29.83 "HgN/A
9:00 AM88 °FPassing clouds.3 mph79%29.83 "HgN/A
8:00 AM84 °FScattered clouds.3 mph79%29.80 "HgN/A
7:00 AM84 °FScattered showers. Broken clouds.3 mph79%29.80 "HgN/A
6:00 AM82 °FScattered showers. Partly cloudy.No wind84%29.77 "HgN/A
5:00 AM82 °FSprinkles. Partly cloudy.3 mph84%29.77 "HgN/A
4:00 AM82 °FPassing clouds.3 mph84%29.74 "HgN/A
3:00 AM84 °FPassing clouds.3 mph79%29.77 "HgN/A
2:00 AM84 °FPassing clouds.No wind79%29.77 "HgN/A
1:00 AM84 °FPassing clouds.3 mph79%29.77 "HgN/A
12:00 AM84 °FPassing clouds.2 mph84%29.80 "HgN/A
11:00 PM
Fri, Apr 24
84 °FPassing clouds.2 mph84%29.80 "HgN/A
10:00 PM84 °FPassing clouds.1 mph79%29.80 "HgN/A
9:00 PM84 °FPartly cloudy.2 mph84%29.77 "HgN/A
8:00 PM84 °FPartly cloudy.No wind84%29.77 "HgN/A
7:00 PM84 °FPartly cloudy.No wind79%29.74 "HgN/A
Weather by CustomWeather, © 2015

See weather overviewHow to use our weather pages